STARLINK-37142

Last updated on Sun Apr 12 2026 00:02:08 GMT+0000 (Coordinated Universal Time)

1 68296U 26057C 26101.47366369 .00506545 00000+0 24656-2 0 9994 2 68296 97.2835 225.5191 0001116 115.7890 244.3494 15.81072793 3446
UTC large
Height (km)
Speed (km/s)
/
Latitude / Longitude
Inclination (degrees)
Orbital Period (minutes)
Azimuth
Elevation
Range (km)
Doppler Factor

Next 0 passes for location: London (51.5072 / 0.1276)

Sorry there are no passes over London.
STARLINK-37142